Regional Weather Roundup
Issued by NWS Newport/Morehead, NC

Current Version | Previous Version | Graphics & Text | Print | Product List | Glossary On
Versions: 1 2 3 4 5 6 7 8 9 10 11 12 13 14 15 16 17 18 19 20 21 22 23 24 25 26 27 28 29 30 31 32 33 34 35 36 37 38 39 40 41 42 43 44 45 46 47 48 49 50
000 ASUS42 KMHX 211922 RWRMHX WEATHER ROUNDUP FOR EASTERN NORTH CAROLINA NATIONAL WEATHER SERVICE NEWPORT/MOREHEAD CITY NC 300 PM EDT TUE OCT 21 2014 NOTE: "FAIR" INDICATES FEW OR NO CLOUDS BELOW 12,000 FEET WITH NO SIGNIFICANT WEATHER AND/OR OBSTRUCTIONS TO VISIBILITY NCZ015>017-031-032-045>047-102-103-212000- NORTH COAST CITY SKY/WX TMP DP RH WIND PRES REMARKS EDENTON SUNNY 74 54 48 SW8 29.82F ELIZABETH CITY PTSUNNY 77 56 48 SW10 29.81F KITTY HAWK CLEAR 73 55 52 S3 29.82S MANTEO MOSUNNY 72 57 60 N3 29.83F $$ NCZ045>047-081-094-103-104-212000- CENTRAL COAST CITY SKY/WX TMP DP RH WIND PRES REMARKS FRISCO SUNNY 70 58 65 SW8 29.85F SWANQUARTER NOT AVBL $$ NCZ095-097-098-100-101-212000- SOUTHERN COAST CITY SKY/WX TMP DP RH WIND PRES REMARKS BEAUFORT SUNNY 73 60 63 SW13 29.85F CEDAR ISLAND NOT AVBL JACKSONVILLE MOSUNNY 77 51 40 W10 29.83F PINEY ISLAND CLEAR 77 54 44 NW7 29.83F WILMINGTON SUNNY 78 52 40 W6 29.84F $$ NCZ011>013-027>030-043-044-078>080-089-090>093-098-212000- COASTAL PLAIN CITY SKY/WX TMP DP RH WIND PRES REMARKS AHOSKIE MOSUNNY 71 50 46 CALM 29.82F CLINTON SUNNY 75 51 42 W5 29.84F ELIZABETHTOWN SUNNY 77 46 33 NW9 29.84F GOLDSBORO SUNNY 75 53 45 W6 29.82F GREENVILLE SUNNY 75 52 43 W6 29.85F HAVELOCK MOSUNNY 76 57 51 S8 29.85F KENANSVILLE SUNNY 76 47 36 W8 29.85S KINSTON SUNNY 73 50 43 W3 29.84F NEW BERN MOSUNNY 79 52 38 SW9 29.84F RICHLANDS SUNNY 77 48 36 SW7 29.84S ROCKY MOUNT SUNNY 75 49 39 W8 29.83F WASHINGTON MOSUNNY 74 52 45 W6 29.82F WHITEVILLE SUNNY 77 48 35 W3 29.84F $$ AMZ130-135-150-152-154-156-158-170-250-252-270-ANZ085-086-088-633-658-670-212000- MARINE OBSERVATIONS STATION/POSITION TIME TEMP WIND PRES WAVE SWELL AIR SEA DIR/SP/G HT/PER HT/PER (UTC) (F) (DEG/KT/KT) (MB) (FT/S) (FT/S) CHESAPEAKE LIGHT 1900 67 340/ 4/ 5 1010.2 64 E VA BEACH 1900 68 69 230/ 8/ 10 1009.6 3/ 9 2/ 9 DUCK 1900 71 69 250/ 7/ 9 1009.1 2 E DUCK 1900 N/A 2/11 2/11 10 NE DUCK 1900 71 N/A 2/11 2/11 OREGON INLET 1900 70 67 180/ 11/ 13 1010.1 13E OREGON INLT 1900 74 N/A 2/11 2/11 HATTERAS CG 1900 72 71 210/ 7/ 10 1011.2 DIAMOND BUOY 1900 72 220/ 12/ 16 1011.1 2/ 9 2/ 9 17 S OCRACOKE 1800 VRB 8/ 10 1011.7 CAPE LOOKOUT 1900 72 200/ 8/ 10 1011.0 BEAUFORT LAB 1900 71 70 200/ 11/ 14 1010.1 30 SE NEW RIVER 1900 72 76 220/ 10/ 12 1010.8 2/ 9 2/ 9 5 SE WRIGHTSVLE 1900 69 74 190/ 12/ 14 N/A 225 S CAPE HAT 1831 75 80 170/ 8/ 10 1012.7 3/ 8 3/ 8 41 SE CHARLESTON 1900 73 80 290/ 6/ 8 1011.9 2/ 9 2/ 9 $$

USA.gov is the U.S. government's official web portal to all federal, state and local government web resources and services.